EW5546 Weather Reports


time (UTC)temp
C
wind
direction
speed
KPH
gust
KPH
rain 1hr
cm
rain 24hr
cm
rain mn
cm
humidity
%
barometer
mb
20260904074016 19 255 3.2 4.8 0.00 0.00 0.00 68 1010.0
20260904073022 19 219 1.6 1.6 0.00 0.00 0.00 68 1010.0
20260904072022 19 222 1.6 4.8 0.00 0.00 0.00 68 1010.0
20260904071102 19 208 1.6 3.2 0.00 0.00 0.00 69 1010.0
20260904070047 18 223 3.2 4.8 0.00 0.00 0.00 69 1010.0
20260904065023 18 217 1.6 3.2 0.00 0.00 0.00 70 1010.0
20260904064022 18 208 1.6 3.2 0.00 0.00 0.00 70 1010.0
20260904063022 18 222 1.6 4.8 0.00 0.00 0.00 71 1010.0
20260904062022 18 219 1.6 1.6 0.00 0.00 0.00 71 1010.0
20260904061022 17 228 3.2 4.8 0.00 0.00 0.00 72 1010.0
20260904060024 17 234 1.6 3.2 0.00 0.00 0.00 72 1010.0
20260904055029 17 221 3.2 4.8 0.00 0.00 0.00 71 1010.0
20260904054024 17 218 3.2 4.8 0.00 0.00 0.00 71 1010.0
20260904053025 17 206 3.2 4.8 0.00 0.00 0.00 70 1010.0
20260904052025 17 230 1.6 3.2 0.00 0.00 0.00 70 1010.0
20260904051017 17 221 3.2 4.8 0.00 0.00 0.00 68 1010.0
20260904050022 17 214 1.6 1.6 0.00 0.00 0.00 68 1010.0
20260904045022 17 203 1.6 3.2 0.00 0.00 0.00 67 1010.0
20260904044015 17 217 3.2 3.2 0.00 0.00 0.00 68 1010.0
20260904043024 17 211 3.2 3.2 0.00 0.00 0.00 67 1010.0
20260904042022 17 224 1.6 3.2 0.00 0.00 0.00 67 1011.0
20260904041026 17 207 1.6 3.2 0.00 0.00 0.00 66 1011.0
20260904040020 17 203 1.6 3.2 0.00 0.00 0.00 66 1011.0
20260904035023 17 207 1.6 4.8 0.00 0.00 0.00 65 1010.0
20260904034016 17 202 1.6 3.2 0.00 0.00 0.00 65 1010.7
20260904033023 17 238 1.6 3.2 0.00 0.00 0.00 64 1011.0
20260904032022 17 227 1.6 3.2 0.00 0.00 0.00 64 1011.0
20260904031023 17 218 1.6 1.6 0.00 0.00 0.00 63 1011.0
20260904030022 17 210 1.6 1.6 0.00 0.00 0.00 62 1011.0
20260904025022 17 203 0.0 1.6 0.00 0.00 0.00 62 1011.0
20260904024018 17 214 1.6 1.6 0.00 0.00 0.00 62 1011.0
20260904023046 17 203 1.6 3.2 0.00 0.00 0.00 62 1011.0
20260904022042 17 225 0.0 1.6 0.00 0.00 0.00 61 1011.0
20260904021022 17 203 1.6 1.6 0.00 0.00 0.00 61 1011.0
20260904020023 17 230 1.6 1.6 0.00 0.00 0.00 62 1011.0
20260904015022 17 191 1.6 3.2 0.00 0.00 0.00 62 1011.0
20260904014022 17 225 1.6 3.2 0.00 0.00 0.00 62 1011.0
20260904013016 17 225 1.6 1.6 0.00 0.00 0.00 62 1011.0
20260904012022 17 231 0.0 1.6 0.00 0.00 0.00 63 1011.0
20260904011042 17 214 1.6 1.6 0.00 0.00 0.00 63 1011.0
20260904010050 17 203 0.0 1.6 0.00 0.00 0.00 63 1011.0
20260904005016 17 203 1.6 3.2 0.00 0.00 0.00 62 1011.0
20260904004022 17 248 0.0 1.6 0.00 0.00 0.00 63 1011.0
20260904003016 18 0.0 0.0 0.00 0.00 0.00 63 1011.0
20260904002024 18 231 1.6 1.6 0.00 0.00 0.00 63 1012.0
20260904001022 18 230 1.6 3.2 0.00 0.00 0.00 64 1012.0
20260904000023 18 203 0.0 1.6 0.00 0.00 0.00 63 1012.0
20260903235024 18 248 1.6 3.2 0.00 0.00 0.00 63 1012.0
20260903234025 18 0.0 0.0 0.00 0.00 0.00 63 1012.0
20260903233023 18 0.0 0.0 0.00 0.00 0.00 61 1012.0
20260903232022 18 203 0.0 3.2 0.00 0.00 0.00 59 1012.0
20260903231042 18 203 1.6 1.6 0.00 0.00 0.00 58 1012.9
20260903230044 18 0.0 0.0 0.00 0.00 0.00 57 1013.0
20260903225022 19 214 0.0 1.6 0.00 0.00 0.00 52 1012.0
20260903224025 19 234 1.6 1.6 0.00 0.00 0.00 52 1012.0
20260903223021 19 0.0 0.0 0.00 0.00 0.00 52 1012.0
20260903222022 19 203 0.0 1.6 0.00 0.00 0.00 52 1012.0
20260903221024 19 203 0.0 1.6 0.00 0.00 0.00 51 1012.7
20260903220018 19 203 1.6 1.6 0.00 0.00 0.00 52 1013.0
20260903215022 19 0.0 0.0 0.00 0.00 0.00 52 1013.0
20260903214024 19 203 0.0 1.6 0.00 0.00 0.00 51 1013.0
20260903213027 19 225 0.0 1.6 0.00 0.00 0.00 52 1013.0
20260903212022 19 218 1.6 1.6 0.00 0.00 0.00 52 1013.0
20260903211022 19 215 1.6 3.2 0.00 0.00 0.00 52 1013.0
20260903210019 19 203 0.0 1.6 0.00 0.00 0.00 53 1013.0
20260903205022 19 209 1.6 3.2 0.00 0.00 0.00 54 1013.0
20260903204022 19 203 1.6 1.6 0.00 0.00 0.00 55 1013.0
20260903203015 19 0.0 0.0 0.00 0.00 0.00 56 1013.0
20260903202022 19 0.0 0.0 0.00 0.00 0.00 56 1013.0
20260903201022 19 0.0 0.0 0.00 0.00 0.00 56 1013.0
20260903200022 20 0.0 0.0 0.00 0.00 0.00 55 1013.0
20260903195022 20 0.0 0.0 0.00 0.00 0.00 53 1013.0
20260903194022 20 0.0 0.0 0.00 0.00 0.00 53 1013.0
20260903193042 20 0.0 0.0 0.00 0.00 0.00 53 1013.0
20260903192025 20 203 0.0 1.6 0.00 0.00 0.00 52 1014.0
20260903191021 20 0.0 0.0 0.00 0.00 0.00 52 1014.0
20260903190054 20 203 0.0 1.6 0.00 0.00 0.00 52 1014.0
20260903185022 20 0.0 0.0 0.00 0.00 0.00 51 1014.0
20260903184024 20 0.0 0.0 0.00 0.00 0.00 50 1014.0
20260903183104 20 0.0 0.0 0.00 0.00 0.00 49 1014.0
20260903182016 20 203 0.0 1.6 0.00 0.00 0.00 48 1014.0
20260903181106 20 215 1.6 3.2 0.00 0.00 0.00 47 1014.0
20260903180015 21 241 1.6 3.2 0.00 0.00 0.00 46 1014.0
20260903175022 21 203 0.0 1.6 0.00 0.00 0.00 47 1014.0
20260903174038 21 0.0 0.0 0.00 0.00 0.00 46 1014.0
20260903173025 21 0.0 0.0 0.00 0.00 0.00 45 1014.0
20260903172026 21 225 0.0 1.6 0.00 0.00 0.00 45 1013.0
20260903171016 21 225 0.0 1.6 0.00 0.00 0.00 44 1013.5
20260903170022 21 0.0 0.0 0.00 0.00 0.00 44 1014.0
20260903165026 21 0.0 0.0 0.00 0.00 0.00 44 1014.0
20260903164022 21 203 1.6 1.6 0.00 0.00 0.00 43 1014.0
20260903163022 21 236 0.0 1.6 0.00 0.00 0.00 43 1014.0
20260903162025 22 214 0.0 1.6 0.00 0.00 0.00 42 1014.0
20260903161018 22 212 0.0 1.6 0.00 0.00 0.00 42 1014.0
20260903160016 22 218 0.0 1.6 0.00 0.00 0.00 42 1014.0
20260903155025 22 248 0.0 1.6 0.00 0.00 0.00 42 1014.0
20260903154015 22 216 1.6 1.6 0.00 0.00 0.00 42 1014.0
20260903153022 22 229 1.6 3.2 0.00 0.00 0.00 42 1014.0
20260903152023 22 234 1.6 3.2 0.00 0.00 0.00 41 1014.0
20260903151020 22 213 1.6 1.6 0.00 0.00 0.00 41 1014.0
20260903150022 23 0.0 0.0 0.00 0.00 0.00 40 1014.0
20260903145017 23 203 1.6 3.2 0.00 0.00 0.00 40 1014.0
20260903144023 23 220 1.6 1.6 0.00 0.00 0.00 39 1014.0
20260903143022 23 170 1.6 1.6 0.00 0.00 0.00 39 1014.0
20260903142025 24 230 1.6 3.2 0.00 0.00 0.00 38 1014.0
20260903141039 25 84 3.2 6.4 0.00 0.00 0.00 38 1014.0
20260903140022 25 236 1.6 1.6 0.00 0.00 0.00 38 1014.0
20260903135022 25 214 1.6 3.2 0.00 0.00 0.00 39 1014.0
20260903134022 25 222 1.6 3.2 0.00 0.00 0.00 38 1014.0
20260903133023 25 242 1.6 3.2 0.00 0.00 0.00 39 1014.0
20260903132024 25 202 1.6 3.2 0.00 0.00 0.00 40 1014.0
20260903131023 24 129 3.2 4.8 0.00 0.00 0.00 40 1014.9
20260903130025 24 353 3.2 8.0 0.00 0.00 0.00 40 1015.0
20260903124017 23 60 3.2 6.4 0.00 0.00 0.00 40 1015.0
20260903123024 23 218 3.2 4.8 0.00 0.00 0.00 41 1015.0
20260903122022 23 76 1.6 4.8 0.00 0.00 0.00 42 1015.0
20260903121024 23 79 3.2 4.8 0.00 0.00 0.00 41 1015.0
20260903120018 22 44 1.6 3.2 0.00 0.00 0.00 42 1015.0
20260903115022 22 68 1.6 6.4 0.00 0.00 0.00 42 1015.0
20260903114022 22 79 3.2 6.4 0.00 0.00 0.00 42 1015.0
20260903113016 22 302 3.2 6.4 0.00 0.00 0.00 42 1015.0
20260903112022 22 92 3.2 8.0 0.00 0.00 0.00 42 1016.1
20260903111015 23 193 1.6 4.8 0.00 0.00 0.00 43 1016.1
20260903110015 22 206 1.6 3.2 0.00 0.00 0.00 43 1016.1
20260903105022 22 219 1.6 3.2 0.00 0.00 0.00 43 1016.1
20260903104023 22 224 3.2 4.8 0.00 0.00 0.00 43 1016.1
20260903103040 22 77 3.2 4.8 0.00 0.00 0.00 43 1016.1
20260903102024 22 223 3.2 3.2 0.00 0.00 0.00 44 1016.1
20260903101022 22 194 1.6 3.2 0.00 0.00 0.00 45 1016.1
20260903100022 22 249 1.6 3.2 0.00 0.00 0.00 45 1016.1
20260903095042 22 3 3.2 6.4 0.00 0.00 0.00 46 1016.1
20260903094022 21 23 3.2 4.8 0.00 0.00 0.00 47 1016.1
20260903093042 21 45 1.6 4.8 0.00 0.00 0.00 48 1016.1
20260903092024 21 34 1.6 6.4 0.00 0.00 0.00 48 1016.1
20260903091022 21 201 1.6 3.2 0.00 0.00 0.00 49 1016.6
20260903090118 21 218 3.2 3.2 0.00 0.00 0.00 48 1017.1
20260903085042 21 218 1.6 3.2 0.00 0.00 0.00 51 1017.1
20260903084023 21 253 1.6 3.2 0.00 0.00 0.00 53 1017.1
20260903083043 20 268 1.6 3.2 0.00 0.00 0.00 54 1017.1
20260903082021 20 198 1.6 1.6 0.00 0.00 0.00 55 1017.1
20260903081022 20 248 0.0 1.6 0.00 0.00 0.00 56 1016.6
20260903080042 20 58 1.6 3.2 0.00 0.00 0.00 57 1016.1
20260903075026 20 248 0.0 1.6 0.00 0.00 0.00 59 1016.1